KE9LZ-9 Weather Reports


time (UTC)temp
F
wind
direction
speed
knots
gust
knots
rain 1hr
in
rain 24hr
in
rain mn
in
humidity
%
barometer
mb
20260507140003 42 270 2.6 7.8 0.00 0.00 0.00 58 1012.7
20260507135004 41 244 2.6 6.1 0.00 0.00 0.00 59 1012.5
20260507134004 41 257 2.6 5.2 0.00 0.00 0.00 61 1012.6
20260507133003 40 254 0.9 4.3 0.00 0.00 0.00 62 1012.5
20260507132004 40 282 1.7 4.3 0.00 0.00 0.00 64 1012.5
20260507131004 40 316 2.6 5.2 0.00 0.00 0.00 64 1012.4
20260507130004 39 265 0.9 2.6 0.00 0.00 0.00 65 1012.5
20260507125004 39 330 0.0 4.3 0.00 0.00 0.00 67 1012.6
20260507124004 38 300 1.7 4.3 0.00 0.00 0.00 67 1012.5
20260507123003 38 311 0.9 2.6 0.00 0.00 0.00 67 1012.4
20260507120005 37 319 0.9 5.2 0.00 0.00 0.00 69 1012.3
20260507115004 37 283 0.9 4.3 0.00 0.00 0.00 69 1012.1
20260507114003 37 331 0.9 1.7 0.00 0.00 0.00 70 1012.0
20260507113004 36 299 0.9 1.7 0.00 0.00 0.00 69 1012.0
20260507112004 36 303 0.0 1.7 0.00 0.00 0.00 70 1011.9
20260507111004 36 314 0.9 1.7 0.00 0.00 0.00 71 1011.8
20260507110004 36 281 0.9 1.7 0.00 0.00 0.00 70 1011.9
20260507105003 36 282 0.9 1.7 0.00 0.00 0.00 70 1012.0
20260507103004 36 296 0.9 2.6 0.00 0.00 0.00 70 1011.9
20260507102006 35 279 0.9 1.7 0.00 0.00 0.00 71 1011.7
20260507101004 35 299 0.9 1.7 0.00 0.00 0.00 72 1011.9
20260507100005 35 328 0.0 1.7 0.00 0.00 0.00 73 1011.8
20260507095004 35 345 0.0 1.7 0.00 0.00 0.00 74 1012.0
20260507094004 35 3 0.0 0.9 0.00 0.00 0.00 72 1011.9
20260507093004 34 355 0.0 0.9 0.00 0.00 0.00 73 1011.8
20260507092004 34 316 0.0 0.9 0.00 0.00 0.00 75 1011.9
20260507091003 34 8 0.0 0.9 0.00 0.00 0.00 73 1011.9
20260507090005 34 11 0.0 0.9 0.00 0.00 0.00 72 1011.9
20260507085004 34 321 0.0 0.9 0.00 0.00 0.00 74 1012.1
20260507084003 34 13 0.0 0.9 0.00 0.00 0.00 72 1012.2
20260507083004 34 322 0.0 0.9 0.00 0.00 0.00 72 1012.0
20260507082003 34 335 0.0 0.9 0.00 0.00 0.00 72 1012.2
20260507081003 34 330 0.0 0.9 0.00 0.00 0.00 71 1012.0
20260507075004 35 342 0.0 0.9 0.00 0.00 0.00 68 1012.1
20260507074003 35 332 0.0 0.9 0.00 0.00 0.00 69 1012.3
20260507073004 35 352 0.0 0.9 0.00 0.00 0.00 68 1012.3
20260507072004 35 32 0.0 0.9 0.00 0.00 0.00 69 1012.4
20260507071004 35 52 0.9 0.9 0.00 0.00 0.00 67 1012.5
20260507070009 35 354 0.0 0.9 0.00 0.00 0.00 67 1012.6
20260507065004 36 30 0.0 0.9 0.00 0.00 0.00 69 1012.8
20260507064003 36 24 0.0 0.9 0.00 0.00 0.00 68 1012.8
20260507063003 36 19 0.0 0.9 0.00 0.00 0.00 67 1013.1
20260507060004 37 327 0.0 0.9 0.00 0.00 0.00 64 1013.2
20260507055004 37 1 0.0 0.9 0.00 0.00 0.00 62 1013.3
20260507054003 37 343 0.0 0.9 0.00 0.00 0.00 65 1013.4
20260507053004 37 10 0.0 0.9 0.00 0.00 0.00 64 1013.6
20260507051004 37 330 0.0 0.9 0.00 0.00 0.00 64 1013.6
20260507050004 37 32 0.0 0.0 0.00 0.00 0.00 63 1013.5
20260507044004 38 346 0.0 0.9 0.00 0.00 0.00 62 1013.6
20260507043003 38 306 0.0 0.9 0.00 0.00 0.00 61 1013.6
20260507042004 38 5 0.0 0.9 0.00 0.00 0.00 58 1013.6
20260507041004 38 13 0.9 0.9 0.00 0.00 0.00 60 1013.5
20260507040004 39 0 0.0 0.9 0.00 0.00 0.00 58 1013.6
20260507031003 40 298 0.9 2.6 0.00 0.00 0.00 53 1013.6
20260507030004 41 327 1.7 4.3 0.00 0.00 0.00 52 1013.7
20260507025004 41 351 0.9 5.2 0.00 0.00 0.00 52 1013.7
20260507023003 41 264 2.6 7.0 0.00 0.00 0.00 51 1013.6
20260507022004 41 339 3.5 7.0 0.00 0.00 0.00 51 1013.6
20260507020003 41 333 2.6 8.7 0.00 0.00 0.00 51 1013.3
20260507015004 41 291 1.7 5.2 0.00 0.00 0.00 52 1013.5
20260507014004 41 346 1.7 4.3 0.00 0.00 0.00 52 1013.3
20260507013004 41 313 1.7 5.2 0.00 0.00 0.00 52 1013.3
20260507012004 42 348 1.7 2.6 0.00 0.00 0.00 51 1013.2
20260507011004 42 323 1.7 5.2 0.00 0.00 0.00 50 1013.1
20260507010004 42 14 1.7 7.8 0.00 0.00 0.00 50 1013.0
20260507005004 42 348 1.7 4.3 0.00 0.00 0.00 49 1013.1
20260507004003 43 23 1.7 5.2 0.00 0.00 0.00 49 1012.9
20260507003003 43 29 1.7 6.1 0.00 0.00 0.00 48 1012.8
20260507002004 43 341 2.6 6.1 0.00 0.00 0.00 47 1012.8
20260507001004 44 16 1.7 7.0 0.00 0.00 0.00 48 1012.5
20260507000004 44 332 2.6 7.0 0.00 0.00 0.00 46 1012.6
20260506235004 44 313 2.6 5.2 0.00 0.00 0.00 46 1012.5
20260506234004 45 8 2.6 10.4 0.00 0.00 0.00 45 1012.3
20260506232003 45 291 4.3 7.8 0.00 0.00 0.00 44 1012.1
20260506231003 45 337 2.6 7.8 0.00 0.00 0.00 44 1012.3
20260506230004 46 338 3.5 8.7 0.00 0.00 0.00 43 1012.2
20260506225004 46 285 3.5 7.8 0.00 0.00 0.00 43 1012.2
20260506223004 47 313 2.6 7.0 0.00 0.00 0.00 41 1012.1
20260506222004 47 345 2.6 7.8 0.00 0.00 0.00 41 1012.0
20260506221004 47 345 3.5 8.7 0.00 0.00 0.00 40 1012.0
20260506220004 47 33 3.5 8.7 0.00 0.00 0.00 40 1011.9
20260506215004 47 43 1.7 5.2 0.00 0.00 0.00 40 1011.9
20260506214003 46 358 3.5 5.2 0.00 0.00 0.00 40 1011.9
20260506213004 47 36 1.7 5.2 0.00 0.00 0.00 40 1011.9
20260506212004 47 26 0.9 7.0 0.00 0.00 0.00 39 1011.9
20260506210004 47 322 4.3 10.4 0.00 0.00 0.00 39 1011.8
20260506205004 47 19 2.6 7.8 0.00 0.00 0.00 39 1012.0
20260506204004 47 331 1.7 15.6 0.00 0.00 0.00 40 1011.9
20260506203004 47 331 4.3 7.8 0.00 0.00 0.00 40 1012.0
20260506202003 47 349 4.3 7.8 0.00 0.00 0.00 42 1012.0
20260506201004 47 350 2.6 10.4 0.00 0.00 0.00 43 1012.1
20260506195004 46 2 1.7 8.7 0.00 0.00 0.00 44 1012.3
20260506194004 47 351 1.7 10.4 0.00 0.00 0.00 44 1012.3
20260506193004 46 318 2.6 7.0 0.00 0.00 0.00 46 1012.2
20260506191004 46 4 4.3 12.2 0.00 0.00 0.00 47 1012.3
20260506190005 46 128 1.7 6.1 0.00 0.00 0.00 47 1012.3
20260506185004 44 321 3.5 12.2 0.00 0.00 0.00 48 1012.3
20260506184004 46 282 4.3 7.8 0.00 0.00 0.00 46 1012.3
20260506183005 45 30 1.7 7.0 0.00 0.00 0.00 48 1012.4
20260506175004 45 332 3.5 7.0 0.00 0.00 0.00 45 1012.5
20260506174004 44 283 2.6 7.8 0.00 0.00 0.00 46 1012.5
20260506172005 44 297 5.2 11.3 0.00 0.00 0.00 48 1012.7
20260506170004 43 341 2.6 10.4 0.00 0.00 0.00 50 1012.9
20260506164004 43 295 4.3 12.2 0.00 0.00 0.00 49 1013.2
20260506163004 43 264 5.2 13.0 0.00 0.00 0.00 49 1013.1
20260506162004 42 283 5.2 12.2 0.00 0.00 0.00 51 1013.2
20260506161004 42 248 4.3 7.8 0.00 0.00 0.00 52 1013.3
20260506160004 43 330 4.3 7.8 0.00 0.00 0.00 53 1013.1
20260506155004 42 228 0.9 6.1 0.00 0.00 0.00 54 1013.2
20260506154003 41 286 4.3 7.8 0.00 0.00 0.00 55 1013.1
20260506153004 41 314 2.6 11.3 0.00 0.00 0.00 55 1013.2
20260506152004 41 357 1.7 6.1 0.00 0.00 0.00 54 1013.1
20260506151004 41 315 5.2 7.8 0.00 0.00 0.00 55 1013.2
20260506150005 41 257 2.6 7.8 0.00 0.00 0.00 55 1013.1
20260506145004 40 37 2.6 5.2 0.00 0.00 0.00 56 1013.1
20260506144004 41 41 1.7 11.3 0.00 0.00 0.00 56 1012.9
20260506143005 40 358 1.7 10.4 0.00 0.00 0.00 57 1013.0
20260506142004 40 269 3.5 7.8 0.00 0.00 0.00 56 1013.1
20260506141003 41 11 1.7 5.2 0.00 0.00 0.00 58 1012.9